Find Aiglonsat-1

NORAD ID: 68444 Int'l Des: NNA 2026-067 Owner: SHARJ Country: UAE operational
LEOCIRCULARRETROGRADESSO

リアルタイム位置

3D地球を読み込み中...

Aiglonsat-1について

説明を読み込み中...

次回通過

Passes for default location (London). Set your location on the main map for personalized predictions.

高度履歴

Loading altitude history...

軌道要素

1 68444U 26067AE 26137.61382903 .00004577 00000-0 22517-3 0 9991
2 68444 97.4563 96.5685 0003681 93.0818 267.0837 15.18497759 7307
Epoch: May 17, 2026 • Age: 13 hours

現在のステータス

高度 512.1 km
速度 7.61 km/s
衛星直下点 19.43°N, 17.43°W
打ち上げ日 Mar 30, 2026
運用期間 0.1 years
タイプ other

技術仕様

分類 Payload
質量 10.00 kg
乾燥質量 10.00 kg
総質量 10.00 kg
長さ 0.30 m
直径 0.10 m
スパン 0.30 m
形状 Box
製造者 SHARJ
バスタイプ Cubesat 6U
フェーズステータス In Orbit
所有者/国 SHARJ/UAE

Most Searched